When you browse on this site, cookies collect data to enhance your experience and personalize the content and advertising you see.
Visit our Privacy Policy to learn more. By continuing to use the site, you agree to this use of cookies and data.
  • In United Kingdom
  • List of Countries
  • For 7 days
  • Water Temperature
  • Weather Map
  • Weather Widgets
  • user-avatar
    Login

    Hourly Weather Ibigs

    Today, 29 February, Saturday

    Time Temperature Precipitation Wind Pressure Humidity
    00:00 +21°C° 0.2 mm 1 mps 649 mmHg 88%
    01:00 +20°C° 0.2 mm 1 mps 649 mmHg 88%
    02:00 +20°C° 0.2 mm 1 mps 649 mmHg 88%
    03:00 +20°C° 0.2 mm 1 mps 648 mmHg 87%
    04:00 +20°C° 0.2 mm 1 mps 648 mmHg 87%
    05:00 +20°C° 0.2 mm 1 mps 649 mmHg 86%
    06:00 +21°C° 0.2 mm 1 mps 649 mmHg 86%
    07:00 +21°C° 0.2 mm 1 mps 650 mmHg 85%
    08:00 +23°C° 0.2 mm 1 mps 651 mmHg 81%
    09:00 +24°C° 0.2 mm 1 mps 651 mmHg 76%
    10:00 +26°C° 0.2 mm 2 mps 652 mmHg 72%
    11:00 +26°C° 0.4 mm 2 mps 651 mmHg 71%
    12:00 +27°C° 0.4 mm 2 mps 650 mmHg 70%
    13:00 +27°C° 0.4 mm 2 mps 650 mmHg 70%
    14:00 +27°C° 0.4 mm 1 mps 649 mmHg 70%
    15:00 +27°C° 0.4 mm 1 mps 649 mmHg 70%
    16:00 +27°C° 0.4 mm 1 mps 648 mmHg 71%
    17:00 +26°C° 0.1 mm 1 mps 648 mmHg 76%
    18:00 +24°C° 0.1 mm 1 mps 648 mmHg 82%
    19:00 +23°C° 0.1 mm 1 mps 648 mmHg 87%
    20:00 +22°C° 0.1 mm 1 mps 649 mmHg 87%
    21:00 +22°C° 0.1 mm 1 mps 649 mmHg 86%
    22:00 +21°C° 0.1 mm 1 mps 650 mmHg 85%
    23:00 +21°C° 0.6 mm 1 mps 649 mmHg 84%

    Tomorrow, 1 March, Sunday

    Time Temperature Precipitation Wind Pressure Humidity
    00:00 +20°C° 0.6 mm 1 mps 649 mmHg 83%
    01:00 +20°C° 0.6 mm 1 mps 648 mmHg 82%
    02:00 +20°C° 0.4 mm 1 mps 648 mmHg 83%
    03:00 +20°C° 0.4 mm 1 mps 648 mmHg 84%
    04:00 +20°C° 0.4 mm 1 mps 648 mmHg 85%
    05:00 +20°C° 0.1 mm 1 mps 648 mmHg 86%
    06:00 +21°C° 0.1 mm 1 mps 649 mmHg 87%
    07:00 +19°C° 0.1 mm 0 mps 650 mmHg 88%
    08:00 +22°C° 0.2 mm 1 mps 650 mmHg 85%
    09:00 +23°C° 0.2 mm 1 mps 650 mmHg 83%
    10:00 +24°C° 0.2 mm 1 mps 651 mmHg 80%
    11:00 +25°C° 0.4 mm 1 mps 650 mmHg 76%
    12:00 +26°C° 0.4 mm 1 mps 650 mmHg 72%
    13:00 +28°C° 0.4 mm 2 mps 649 mmHg 68%
    14:00 +28°C° 0.3 mm 2 mps 648 mmHg 69%
    15:00 +27°C° 0.3 mm 1 mps 648 mmHg 70%
    16:00 +27°C° 0.3 mm 1 mps 647 mmHg 71%
    17:00 +26°C° 0.2 mm 1 mps 647 mmHg 76%
    18:00 +25°C° 0.2 mm 1 mps 647 mmHg 81%
    19:00 +23°C° 0.2 mm 1 mps 647 mmHg 87%
    20:00 +22°C° 0.4 mm 1 mps 648 mmHg 87%
    21:00 +22°C° 0.4 mm 1 mps 648 mmHg 87%
    22:00 +21°C° 0.4 mm 1 mps 649 mmHg 86%
    23:00 +21°C° 0.3 mm 1 mps 649 mmHg 86%

    Day after tomorrow, 2 March, Monday

    Time Temperature Precipitation Wind Pressure Humidity
    00:00 +21°C° 0.3 mm 1 mps 648 mmHg 86%
    01:00 +20°C° 0.3 mm 1 mps 648 mmHg 86%
    02:00 +20°C° 0.4 mm 1 mps 648 mmHg 86%
    03:00 +20°C° 0.4 mm 1 mps 648 mmHg 86%
    04:00 +21°C° 0.4 mm 1 mps 647 mmHg 87%
    05:00 +21°C° 0.3 mm 1 mps 648 mmHg 87%
    06:00 +19°C° 0.3 mm 0 mps 648 mmHg 87%
    07:00 +19°C° 0.3 mm 0 mps 649 mmHg 87%
    08:00 +23°C° 0.2 mm 1 mps 649 mmHg 84%
    09:00 +24°C° 0.2 mm 1 mps 649 mmHg 80%
    10:00 +25°C° 0.2 mm 1 mps 650 mmHg 77%
    11:00 +26°C° 0.4 mm 2 mps 649 mmHg 73%
    12:00 +27°C° 0.4 mm 2 mps 649 mmHg 70%
    13:00 +28°C° 0.4 mm 2 mps 648 mmHg 67%
    14:00 +28°C° 0.3 mm 1 mps 648 mmHg 68%
    15:00 +28°C° 0.3 mm 1 mps 647 mmHg 70%
    16:00 +28°C° 0.3 mm 1 mps 646 mmHg 71%
    17:00 +26°C° 0.3 mm 1 mps 647 mmHg 76%
    18:00 +25°C° 0.3 mm 1 mps 647 mmHg 81%
    19:00 +21°C° 0.3 mm 0 mps 647 mmHg 86%
    20:00 +23°C° 0.2 mm 1 mps 647 mmHg 87%
    21:00 +22°C° 0.2 mm 1 mps 648 mmHg 88%
    22:00 +22°C° 0.2 mm 1 mps 648 mmHg 88%
    23:00 +21°C° 0.3 mm 1 mps 648 mmHg 88%

    3 March, Tuesday

    Time Temperature Precipitation Wind Pressure Humidity
    00:00 +21°C° 0.3 mm 1 mps 648 mmHg 87%
    01:00 +20°C° 0.3 mm 1 mps 647 mmHg 87%
    02:00 +20°C° 0.3 mm 1 mps 647 mmHg 86%
    03:00 +20°C° 0.3 mm 1 mps 647 mmHg 85%
    04:00 +20°C° 0.3 mm 1 mps 646 mmHg 85%
    05:00 +20°C° 0.4 mm 1 mps 647 mmHg 85%
    06:00 +20°C° 0.4 mm 1 mps 647 mmHg 86%
    07:00 +21°C° 0.4 mm 1 mps 648 mmHg 87%
    08:00 +22°C° 0.1 mm 1 mps 648 mmHg 85%
    09:00 +23°C° 0.1 mm 1 mps 649 mmHg 82%
    10:00 +24°C° 0.1 mm 1 mps 649 mmHg 80%
    11:00 +25°C° 0.4 mm 1 mps 649 mmHg 76%
    12:00 +27°C° 0.4 mm 1 mps 648 mmHg 72%
    13:00 +28°C° 0.4 mm 2 mps 648 mmHg 68%
    14:00 +28°C° 0.4 mm 1 mps 647 mmHg 70%
    15:00 +27°C° 0.4 mm 1 mps 647 mmHg 72%
    16:00 +27°C° 0.4 mm 1 mps 646 mmHg 74%
    17:00 +26°C° 0.6 mm 1 mps 647 mmHg 78%
    18:00 +25°C° 0.6 mm 1 mps 647 mmHg 82%
    19:00 +21°C° 0.6 mm 0 mps 647 mmHg 87%
    20:00 +23°C° 0.5 mm 1 mps 647 mmHg 87%
    21:00 +22°C° 0.5 mm 1 mps 648 mmHg 87%
    22:00 +21°C° 0.5 mm 1 mps 648 mmHg 88%
    23:00 +21°C° 0.2 mm 1 mps 648 mmHg 87%

    4 March, Wednesday

    Time Temperature Precipitation Wind Pressure Humidity
    00:00 +21°C° 0.2 mm 1 mps 648 mmHg 87%
    01:00 +21°C° 0.2 mm 1 mps 648 mmHg 87%
    02:00 +20°C° 0.3 mm 1 mps 648 mmHg 87%
    03:00 +20°C° 0.3 mm 1 mps 647 mmHg 86%
    04:00 +20°C° 0.3 mm 1 mps 647 mmHg 86%
    05:00 +20°C° 0.1 mm 1 mps 648 mmHg 86%
    06:00 +21°C° 0.1 mm 1 mps 648 mmHg 85%
    07:00 +21°C° 0.1 mm 1 mps 649 mmHg 85%
    08:00 +23°C° 0.2 mm 1 mps 649 mmHg 81%
    09:00 +24°C° 0.2 mm 1 mps 650 mmHg 78%
    10:00 +26°C° 0.2 mm 2 mps 651 mmHg 74%
    11:00 +26°C° 0.8 mm 2 mps 650 mmHg 74%
    12:00 +27°C° 0.8 mm 1 mps 649 mmHg 74%
    13:00 +28°C° 0.8 mm 1 mps 649 mmHg 73%
    14:00 +27°C° 0.5 mm 1 mps 648 mmHg 74%
    15:00 +27°C° 0.5 mm 1 mps 648 mmHg 74%
    16:00 +27°C° 0.5 mm 1 mps 647 mmHg 75%
    17:00 +26°C° 0.5 mm 1 mps 647 mmHg 79%
    18:00 +24°C° 0.5 mm 1 mps 648 mmHg 83%
    19:00 +23°C° 0.5 mm 1 mps 648 mmHg 87%
    20:00 +23°C° 0.7 mm 1 mps 648 mmHg 87%
    21:00 +22°C° 0.7 mm 1 mps 649 mmHg 88%
    22:00 +21°C° 0.7 mm 1 mps 649 mmHg 88%
    23:00 +21°C° 0.2 mm 1 mps 649 mmHg 88%

    5 March, Thursday

    Time Temperature Precipitation Wind Pressure Humidity
    00:00 +21°C° 0.2 mm 1 mps 649 mmHg 87%
    01:00 +21°C° 0.2 mm 1 mps 649 mmHg 87%
    02:00 +20°C° 0.1 mm 1 mps 648 mmHg 86%
    03:00 +20°C° 0.1 mm 1 mps 648 mmHg 86%
    04:00 +20°C° 0.1 mm 1 mps 648 mmHg 86%
    05:00 +20°C° 0.1 mm 1 mps 648 mmHg 85%
    06:00 +21°C° 0.1 mm 1 mps 649 mmHg 84%
    07:00 +21°C° 0.1 mm 1 mps 649 mmHg 84%
    08:00 +22°C° 0.1 mm 1 mps 650 mmHg 80%
    09:00 +24°C° 0.1 mm 1 mps 651 mmHg 76%
    10:00 +26°C° 0.1 mm 2 mps 651 mmHg 73%
    11:00 +26°C° 0.3 mm 1 mps 651 mmHg 72%
    12:00 +27°C° 0.3 mm 1 mps 650 mmHg 72%
    13:00 +27°C° 0.3 mm 1 mps 649 mmHg 71%
    14:00 +27°C° 0.5 mm 1 mps 648 mmHg 73%
    15:00 +27°C° 0.5 mm 1 mps 648 mmHg 75%
    16:00 +27°C° 0.5 mm 1 mps 647 mmHg 76%
    17:00 +26°C° 0.4 mm 1 mps 647 mmHg 80%
    18:00 +24°C° 0.4 mm 1 mps 648 mmHg 84%
    19:00 +23°C° 0.4 mm 1 mps 648 mmHg 87%
    20:00 +23°C° 0.7 mm 1 mps 648 mmHg 88%
    21:00 +22°C° 0.7 mm 1 mps 649 mmHg 88%
    22:00 +21°C° 0.7 mm 1 mps 649 mmHg 89%
    23:00 +21°C° 0.3 mm 1 mps 649 mmHg 88%
    Show more